| time (UTC) | temp F | wind direction | speed MPH | gust MPH | rain 1hr in | rain 24hr in | rain mn in | humidity % | barometer mb |
| 20260906124424 | 67 | 136 | 1.0 | 4.0 | 0.00 | 0.00 | 0.00 | 100 | 1019.1 |
| 20260906123918 | 67 | 46 | 1.0 | 4.0 | 0.00 | 0.00 | 0.00 | 100 | 1019.0 |
| 20260906123411 | 67 | 46 | 1.0 | 4.0 | 0.00 | 0.00 | 0.00 | 100 | 1019.1 |
| 20260906122905 | 67 | 20 | 1.0 | 4.0 | 0.00 | 0.00 | 0.00 | 100 | 1019.0 |
| 20260906122405 | 67 | 136 | 1.0 | 4.0 | 0.00 | 0.00 | 0.00 | 100 | 1019.1 |
| 20260906121905 | 67 | 46 | 1.0 | 3.0 | 0.00 | 0.00 | 0.00 | 100 | 1019.1 |
| 20260906121405 | 67 | 56 | 1.0 | 4.0 | 0.00 | 0.00 | 0.00 | 100 | 1019.1 |
| 20260906120906 | 67 | 35 | 2.0 | 6.0 | 0.00 | 0.00 | 0.00 | 100 | 1019.0 |
| 20260906115904 | 67 | 124 | 1.0 | 5.0 | 0.00 | 0.00 | 0.00 | 100 | 1018.9 |
| 20260906115405 | 67 | 23 | 1.0 | 4.0 | 0.00 | 0.00 | 0.00 | 100 | 1018.8 |
| 20260906114904 | 67 | 72 | 2.0 | 5.0 | 0.00 | 0.00 | 0.00 | 100 | 1018.7 |
| 20260906114404 | 67 | 56 | 2.0 | 5.0 | 0.00 | 0.00 | 0.00 | 100 | 1018.4 |
| 20260906113906 | 67 | 51 | 1.0 | 5.0 | 0.00 | 0.00 | 0.00 | 100 | 1018.3 |
| 20260906113404 | 67 | 54 | 1.0 | 5.0 | 0.00 | 0.00 | 0.00 | 100 | 1018.2 |
| 20260906112905 | 67 | 37 | 2.0 | 5.0 | 0.00 | 0.00 | 0.00 | 100 | 1018.2 |
| 20260906111905 | 67 | 35 | 2.0 | 7.0 | 0.00 | 0.00 | 0.00 | 100 | 1018.2 |
| 20260906111406 | 66 | 124 | 1.0 | 6.0 | 0.00 | 0.00 | 0.00 | 100 | 1018.2 |
| 20260906110905 | 66 | 28 | 1.0 | 5.0 | 0.00 | 0.00 | 0.00 | 100 | 1018.2 |
| 20260906110406 | 66 | 51 | 2.0 | 6.0 | 0.00 | 0.00 | 0.00 | 100 | 1018.0 |
| 20260906105906 | 66 | 33 | 2.0 | 6.0 | 0.00 | 0.00 | 0.00 | 100 | 1018.0 |
| 20260906104906 | 66 | 223 | 3.0 | 6.0 | 0.00 | 0.00 | 0.00 | 99 | 1018.0 |
| 20260906104405 | 66 | 46 | 3.0 | 7.0 | 0.00 | 0.00 | 0.00 | 99 | 1017.9 |
| 20260906103903 | 66 | 28 | 3.0 | 9.0 | 0.00 | 0.00 | 0.00 | 99 | 1018.0 |
| 20260906103404 | 66 | 51 | 3.0 | 9.0 | 0.00 | 0.00 | 0.00 | 99 | 1017.9 |
| 20260906102904 | 66 | 51 | 2.0 | 6.0 | 0.00 | 0.00 | 0.00 | 99 | 1017.7 |
| 20260906102405 | 66 | 28 | 2.0 | 6.0 | 0.00 | 0.00 | 0.00 | 99 | 1017.7 |
| 20260906101905 | 66 | 46 | 2.0 | 7.0 | 0.00 | 0.00 | 0.00 | 99 | 1017.7 |
| 20260906101405 | 66 | 46 | 2.0 | 7.0 | 0.00 | 0.00 | 0.00 | 99 | 1017.7 |
| 20260906100404 | 66 | 46 | 3.0 | 6.0 | 0.00 | 0.00 | 0.00 | 99 | 1017.6 |
| 20260906095904 | 66 | 28 | 3.0 | 8.0 | 0.00 | 0.00 | 0.00 | 99 | 1017.6 |
| 20260906095406 | 66 | 32 | 3.0 | 8.0 | 0.00 | 0.00 | 0.00 | 98 | 1017.7 |
| 20260906094904 | 66 | 35 | 3.0 | 8.0 | 0.00 | 0.00 | 0.00 | 98 | 1017.6 |
| 20260906094402 | 66 | 41 | 2.0 | 6.0 | 0.00 | 0.00 | 0.00 | 98 | 1017.4 |
| 20260906093903 | 66 | 35 | 2.0 | 6.0 | 0.00 | 0.00 | 0.00 | 98 | 1017.4 |
| 20260906093357 | 66 | 346 | 3.0 | 7.0 | 0.00 | 0.00 | 0.00 | 98 | 1017.5 |
| 20260906092850 | 66 | 28 | 3.0 | 7.0 | 0.00 | 0.00 | 0.00 | 98 | 1017.5 |
| 20260906092345 | 66 | 28 | 2.0 | 7.0 | 0.00 | 0.00 | 0.00 | 98 | 1017.4 |
| 20260906091838 | 66 | 39 | 3.0 | 6.0 | 0.00 | 0.00 | 0.00 | 98 | 1017.5 |
| 20260906090828 | 66 | 46 | 3.0 | 7.0 | 0.00 | 0.00 | 0.00 | 98 | 1017.4 |
| 20260906085815 | 66 | 27 | 3.0 | 7.0 | 0.00 | 0.00 | 0.00 | 98 | 1017.4 |
| 20260906085309 | 67 | 6 | 2.0 | 6.0 | 0.00 | 0.00 | 0.00 | 97 | 1017.4 |
| 20260906084802 | 67 | 46 | 2.0 | 6.0 | 0.00 | 0.00 | 0.00 | 97 | 1017.4 |
| 20260906084256 | 67 | 20 | 2.0 | 6.0 | 0.00 | 0.00 | 0.00 | 97 | 1017.4 |
| 20260906083750 | 67 | 46 | 2.0 | 6.0 | 0.00 | 0.00 | 0.00 | 97 | 1017.3 |
| 20260906083245 | 67 | 39 | 3.0 | 6.0 | 0.00 | 0.00 | 0.00 | 97 | 1017.4 |
| 20260906082739 | 67 | 39 | 3.0 | 6.0 | 0.00 | 0.00 | 0.00 | 97 | 1017.4 |
| 20260906082233 | 67 | 54 | 2.0 | 5.0 | 0.00 | 0.00 | 0.00 | 97 | 1017.3 |
| 20260906081726 | 67 | 46 | 2.0 | 5.0 | 0.00 | 0.00 | 0.00 | 97 | 1017.4 |
| 20260906080715 | 67 | 46 | 2.0 | 6.0 | 0.00 | 0.00 | 0.00 | 97 | 1017.5 |
| 20260906080208 | 67 | 39 | 2.0 | 4.0 | 0.00 | 0.00 | 0.00 | 96 | 1017.4 |
| 20260906075156 | 68 | 21 | 3.0 | 7.0 | 0.00 | 0.00 | 0.00 | 96 | 1017.5 |
| 20260906074651 | 68 | 41 | 3.0 | 8.0 | 0.00 | 0.00 | 0.00 | 96 | 1017.6 |
| 20260906074144 | 68 | 42 | 2.0 | 8.0 | 0.00 | 0.00 | 0.00 | 96 | 1017.6 |
| 20260906073639 | 68 | 46 | 2.0 | 5.0 | 0.00 | 0.00 | 0.00 | 96 | 1017.6 |
| 20260906073132 | 68 | 136 | 2.0 | 6.0 | 0.00 | 0.00 | 0.00 | 96 | 1017.5 |
| 20260906072627 | 68 | 28 | 2.0 | 7.0 | 0.00 | 0.00 | 0.00 | 96 | 1017.6 |
| 20260906072121 | 68 | 46 | 2.0 | 7.0 | 0.00 | 0.00 | 0.00 | 96 | 1017.6 |
| 20260906071615 | 68 | 136 | 2.0 | 6.0 | 0.00 | 0.00 | 0.00 | 95 | 1017.6 |
| 20260906071109 | 69 | 30 | 2.0 | 6.0 | 0.00 | 0.00 | 0.00 | 96 | 1017.6 |
| 20260906070603 | 69 | 23 | 2.0 | 5.0 | 0.00 | 0.00 | 0.00 | 96 | 1017.6 |
| 20260906070056 | 69 | 20 | 2.0 | 6.0 | 0.00 | 0.00 | 0.00 | 96 | 1017.6 |
| 20260906065550 | 69 | 28 | 2.0 | 6.0 | 0.00 | 0.00 | 0.00 | 95 | 1017.6 |
| 20260906065044 | 69 | 30 | 2.0 | 7.0 | 0.00 | 0.00 | 0.00 | 95 | 1017.6 |
| 20260906064539 | 69 | 30 | 2.0 | 7.0 | 0.00 | 0.00 | 0.00 | 95 | 1017.6 |
| 20260906064033 | 69 | 46 | 2.0 | 7.0 | 0.00 | 0.00 | 0.00 | 95 | 1017.6 |
| 20260906063526 | 69 | 56 | 3.0 | 7.0 | 0.00 | 0.00 | 0.00 | 95 | 1017.7 |
| 20260906063020 | 69 | 28 | 2.0 | 7.0 | 0.00 | 0.00 | 0.00 | 95 | 1017.6 |
| 20260906062521 | 69 | 33 | 2.0 | 5.0 | 0.00 | 0.00 | 0.00 | 95 | 1017.6 |
| 20260906062021 | 69 | 23 | 2.0 | 7.0 | 0.00 | 0.00 | 0.00 | 95 | 1017.6 |
| 20260906061521 | 69 | 328 | 2.0 | 7.0 | 0.00 | 0.00 | 0.00 | 95 | 1017.7 |
| 20260906061021 | 69 | 18 | 2.0 | 6.0 | 0.00 | 0.00 | 0.00 | 95 | 1017.7 |
| 20260906060521 | 69 | 179 | 2.0 | 6.0 | 0.00 | 0.00 | 0.00 | 94 | 1017.6 |
| 20260906060020 | 69 | 63 | 2.0 | 6.0 | 0.00 | 0.00 | 0.00 | 94 | 1017.6 |
| 20260906055519 | 69 | 40 | 2.0 | 7.0 | 0.00 | 0.00 | 0.00 | 94 | 1017.6 |
| 20260906055021 | 69 | 146 | 2.0 | 7.0 | 0.00 | 0.00 | 0.00 | 94 | 1017.6 |
| 20260906054519 | 69 | 25 | 2.0 | 8.0 | 0.00 | 0.00 | 0.00 | 94 | 1017.6 |
| 20260906054018 | 69 | 46 | 2.0 | 9.0 | 0.00 | 0.00 | 0.00 | 94 | 1017.6 |
| 20260906053518 | 70 | 75 | 2.0 | 9.0 | 0.00 | 0.00 | 0.00 | 94 | 1017.6 |
| 20260906053018 | 70 | 90 | 2.0 | 6.0 | 0.00 | 0.00 | 0.00 | 94 | 1017.6 |
| 20260906052518 | 70 | 13 | 2.0 | 6.0 | 0.00 | 0.00 | 0.00 | 94 | 1017.6 |
| 20260906052019 | 70 | 82 | 2.0 | 4.0 | 0.00 | 0.00 | 0.00 | 94 | 1017.5 |
| 20260906051518 | 70 | 60 | 2.0 | 4.0 | 0.00 | 0.00 | 0.00 | 94 | 1017.5 |
| 20260906051017 | 70 | 32 | 2.0 | 6.0 | 0.00 | 0.00 | 0.00 | 94 | 1017.4 |
| 20260906050516 | 70 | 20 | 2.0 | 6.0 | 0.00 | 0.00 | 0.00 | 94 | 1017.3 |
| 20260906050010 | 70 | 136 | 2.0 | 6.0 | 0.00 | 0.00 | 0.00 | 94 | 1017.3 |
| 20260906045503 | 70 | 161 | 2.0 | 6.0 | 0.00 | 0.00 | 0.00 | 94 | 1017.3 |
| 20260906044957 | 70 | 46 | 2.0 | 6.0 | 0.00 | 0.00 | 0.00 | 94 | 1017.2 |
| 20260906044451 | 70 | 56 | 2.0 | 6.0 | 0.00 | 0.00 | 0.00 | 93 | 1017.2 |
| 20260906043945 | 70 | 37 | 2.0 | 6.0 | 0.00 | 0.00 | 0.00 | 93 | 1017.2 |
| 20260906042934 | 70 | 328 | 3.0 | 9.0 | 0.00 | 0.00 | 0.00 | 93 | 1017.2 |
| 20260906042427 | 70 | 23 | 2.0 | 7.0 | 0.00 | 0.00 | 0.00 | 93 | 1017.1 |
| 20260906041922 | 70 | 35 | 2.0 | 5.0 | 0.00 | 0.00 | 0.00 | 93 | 1017.0 |
| 20260906040909 | 70 | 42 | 2.0 | 5.0 | 0.00 | 0.00 | 0.00 | 93 | 1017.0 |
| 20260906035858 | 70 | 117 | 1.0 | 3.0 | 0.00 | 0.00 | 0.00 | 93 | 1016.9 |
| 20260906035351 | 70 | 296 | 1.0 | 4.0 | 0.00 | 0.00 | 0.00 | 92 | 1016.8 |
| 20260906034845 | 70 | 105 | 2.0 | 4.0 | 0.00 | 0.00 | 0.00 | 92 | 1016.8 |
| 20260906032315 | 71 | 25 | 1.0 | 4.0 | 0.00 | 0.00 | 0.00 | 92 | 1016.5 |
| 20260906031809 | 71 | 63 | 1.0 | 4.0 | 0.00 | 0.00 | 0.00 | 92 | 1016.4 |
| 20260906031303 | 71 | 105 | 2.0 | 3.0 | 0.00 | 0.00 | 0.00 | 91 | 1016.4 |
| 20260906030758 | 71 | 1 | 2.0 | 5.0 | 0.00 | 0.00 | 0.00 | 91 | 1016.4 |
| 20260906030251 | 71 | 121 | 2.0 | 5.0 | 0.00 | 0.00 | 0.00 | 91 | 1016.3 |
| 20260906025746 | 71 | 68 | 2.0 | 5.0 | 0.00 | 0.00 | 0.00 | 91 | 1016.4 |
| 20260906025246 | 71 | 78 | 2.0 | 5.0 | 0.00 | 0.00 | 0.00 | 91 | 1016.3 |
| 20260906024746 | 71 | 46 | 2.0 | 5.0 | 0.00 | 0.00 | 0.00 | 91 | 1016.3 |
| 20260906024246 | 71 | 20 | 2.0 | 6.0 | 0.00 | 0.00 | 0.00 | 91 | 1016.3 |
| 20260906023745 | 71 | 97 | 2.0 | 6.0 | 0.00 | 0.00 | 0.00 | 91 | 1016.2 |
| 20260906023245 | 71 | 46 | 2.0 | 5.0 | 0.00 | 0.00 | 0.00 | 91 | 1016.2 |
| 20260906022745 | 71 | 42 | 2.0 | 7.0 | 0.00 | 0.00 | 0.00 | 91 | 1016.2 |
| 20260906022246 | 71 | 66 | 3.0 | 7.0 | 0.00 | 0.00 | 0.00 | 90 | 1016.2 |
| 20260906021743 | 71 | 35 | 3.0 | 7.0 | 0.00 | 0.00 | 0.00 | 90 | 1016.2 |
| 20260906020739 | 71 | 139 | 3.0 | 6.0 | 0.00 | 0.00 | 0.00 | 91 | 1016.1 |
| 20260906020239 | 71 | 56 | 2.0 | 6.0 | 0.00 | 0.00 | 0.00 | 91 | 1016.2 |
| 20260906015738 | 71 | 59 | 2.0 | 7.0 | 0.00 | 0.00 | 0.00 | 91 | 1016.3 |
| 20260906014738 | 71 | 46 | 2.0 | 7.0 | 0.00 | 0.00 | 0.00 | 92 | 1016.3 |
| 20260906014239 | 71 | 56 | 2.0 | 7.0 | 0.00 | 0.00 | 0.00 | 92 | 1016.2 |
| 20260906013738 | 72 | 82 | 2.0 | 6.0 | 0.00 | 0.00 | 0.00 | 92 | 1016.2 |
| 20260906013240 | 72 | 90 | 1.0 | 4.0 | 0.00 | 0.00 | 0.00 | 92 | 1016.2 |
| 20260906012734 | 72 | 90 | 2.0 | 5.0 | 0.00 | 0.00 | 0.00 | 91 | 1016.1 |
| 20260906012232 | 72 | 331 | 2.0 | 5.0 | 0.00 | 0.00 | 0.00 | 91 | 1016.2 |
| 20260906011733 | 72 | 56 | 3.0 | 7.0 | 0.00 | 0.00 | 0.00 | 91 | 1016.2 |
| 20260906011232 | 72 | 124 | 3.0 | 8.0 | 0.00 | 0.00 | 0.00 | 90 | 1016.2 |
| 20260906010733 | 73 | 90 | 3.0 | 10.0 | 0.00 | 0.00 | 0.00 | 90 | 1016.1 |
| 20260906010232 | 73 | 90 | 2.0 | 10.0 | 0.00 | 0.00 | 0.00 | 89 | 1016.1 |
| 20260906005734 | 73 | 49 | 2.0 | 8.0 | 0.00 | 0.00 | 0.00 | 89 | 1016.0 |
| 20260906005232 | 73 | 54 | 2.0 | 6.0 | 0.00 | 0.00 | 0.00 | 88 | 1016.0 |
| 20260906004732 | 74 | 68 | 2.0 | 7.0 | 0.00 | 0.00 | 0.00 | 88 | 1015.9 |
| 20260906004233 | 74 | 90 | 2.0 | 8.0 | 0.00 | 0.00 | 0.00 | 87 | 1015.8 |
| 20260906003728 | 74 | 46 | 2.0 | 8.0 | 0.00 | 0.00 | 0.00 | 87 | 1015.9 |
| 20260906003229 | 74 | 30 | 3.0 | 7.0 | 0.00 | 0.00 | 0.00 | 87 | 1015.9 |
| 20260906002728 | 75 | 46 | 2.0 | 7.0 | 0.00 | 0.00 | 0.00 | 87 | 1015.7 |
| 20260906002229 | 75 | 1 | 3.0 | 10.0 | 0.00 | 0.00 | 0.00 | 87 | 1015.7 |
| 20260906001728 | 75 | 49 | 3.0 | 10.0 | 0.00 | 0.00 | 0.00 | 86 | 1015.8 |
| 20260906001228 | 76 | 51 | 3.0 | 9.0 | 0.00 | 0.00 | 0.00 | 86 | 1015.7 |
| 20260906000229 | 77 | 33 | 3.0 | 10.0 | 0.00 | 0.00 | 0.00 | 86 | 1015.5 |
| 20260905235729 | 77 | 59 | 3.0 | 10.0 | 0.00 | 0.00 | 0.00 | 85 | 1015.5 |
| 20260905235223 | 78 | 49 | 3.0 | 8.0 | 0.00 | 0.00 | 0.00 | 84 | 1015.5 |
| 20260905234717 | 78 | 54 | 3.0 | 8.0 | 0.00 | 0.00 | 0.00 | 84 | 1015.4 |
| 20260905234210 | 78 | 44 | 3.0 | 7.0 | 0.00 | 0.00 | 0.00 | 83 | 1015.4 |
| 20260905233158 | 79 | 58 | 3.0 | 11.0 | 0.00 | 0.00 | 0.00 | 81 | 1015.2 |
| 20260905232147 | 80 | 60 | 3.0 | 11.0 | 0.00 | 0.00 | 0.00 | 80 | 1014.9 |
| 20260905231640 | 80 | 56 | 3.0 | 11.0 | 0.00 | 0.00 | 0.00 | 80 | 1014.9 |
| 20260905231134 | 80 | 72 | 2.0 | 8.0 | 0.00 | 0.00 | 0.00 | 80 | 1014.9 |
| 20260905230123 | 80 | 28 | 2.0 | 11.0 | 0.00 | 0.00 | 0.00 | 78 | 1014.9 |
| 20260905225617 | 81 | 102 | 3.0 | 14.0 | 0.00 | 0.00 | 0.00 | 78 | 1014.9 |
| 20260905225110 | 81 | 202 | 5.0 | 15.0 | 0.00 | 0.00 | 0.00 | 77 | 1014.8 |
| 20260905224604 | 81 | 20 | 6.0 | 15.0 | 0.00 | 0.00 | 0.00 | 76 | 1014.9 |
| 20260905224058 | 82 | 27 | 4.0 | 12.0 | 0.00 | 0.00 | 0.00 | 76 | 1014.7 |
| 20260905223552 | 82 | 27 | 4.0 | 10.0 | 0.00 | 0.00 | 0.00 | 75 | 1014.6 |
| 20260905223046 | 82 | 49 | 5.0 | 11.0 | 0.00 | 0.00 | 0.00 | 75 | 1014.5 |
| 20260905222541 | 82 | 16 | 5.0 | 11.0 | 0.00 | 0.00 | 0.00 | 75 | 1014.5 |
| 20260905222034 | 82 | 1 | 5.0 | 11.0 | 0.00 | 0.00 | 0.00 | 75 | 1014.5 |
| 20260905221528 | 81 | 25 | 5.0 | 13.0 | 0.00 | 0.00 | 0.00 | 76 | 1014.6 |
| 20260905221023 | 81 | 30 | 5.0 | 16.0 | 0.00 | 0.00 | 0.00 | 77 | 1014.6 |
| 20260905220516 | 81 | 90 | 4.0 | 16.0 | 0.00 | 0.00 | 0.00 | 76 | 1014.4 |
| 20260905220010 | 81 | 210 | 3.0 | 11.0 | 0.00 | 0.00 | 0.00 | 77 | 1014.5 |
| 20260905215505 | 81 | 33 | 3.0 | 11.0 | 0.00 | 0.00 | 0.00 | 78 | 1014.5 |
| 20260905214958 | 81 | 28 | 3.0 | 9.0 | 0.00 | 0.00 | 0.00 | 81 | 1014.5 |
| 20260905214453 | 81 | 11 | 3.0 | 11.0 | 0.00 | 0.00 | 0.00 | 80 | 1014.5 |
| 20260905213947 | 81 | 46 | 3.0 | 11.0 | 0.00 | 0.00 | 0.00 | 80 | 1014.5 |
| 20260905212934 | 80 | 323 | 4.0 | 10.0 | 0.00 | 0.00 | 0.00 | 81 | 1014.5 |
| 20260905212428 | 80 | 20 | 3.0 | 9.0 | 0.00 | 0.00 | 0.00 | 82 | 1014.5 |
| 20260905211922 | 80 | 28 | 3.0 | 9.0 | 0.00 | 0.00 | 0.00 | 82 | 1014.7 |
| 20260905211416 | 80 | 108 | 3.0 | 9.0 | 0.00 | 0.00 | 0.00 | 83 | 1014.7 |
| 20260905210405 | 79 | 117 | 4.0 | 11.0 | 0.00 | 0.00 | 0.00 | 83 | 1014.8 |
| 20260905205858 | 79 | 37 | 4.0 | 11.0 | 0.00 | 0.00 | 0.00 | 83 | 1014.7 |
| 20260905205352 | 78 | 30 | 3.0 | 11.0 | 0.00 | 0.00 | 0.00 | 84 | 1014.8 |
| 20260905204846 | 78 | 72 | 3.0 | 8.0 | 0.00 | 0.00 | 0.00 | 85 | 1014.9 |
| 20260905204340 | 78 | 72 | 3.0 | 7.0 | 0.00 | 0.00 | 0.00 | 85 | 1015.0 |
| 20260905203834 | 78 | 72 | 3.0 | 7.0 | 0.00 | 0.00 | 0.00 | 86 | 1015.1 |
| 20260905202822 | 78 | 28 | 2.0 | 6.0 | 0.00 | 0.00 | 0.00 | 87 | 1015.0 |
| 20260905202317 | 78 | 6 | 3.0 | 7.0 | 0.00 | 0.00 | 0.00 | 87 | 1015.1 |
| 20260905201810 | 78 | 11 | 3.0 | 8.0 | 0.00 | 0.00 | 0.00 | 87 | 1015.2 |
| 20260905201304 | 78 | 114 | 3.0 | 8.0 | 0.00 | 0.00 | 0.00 | 86 | 1015.4 |
| 20260905200800 | 78 | 114 | 4.0 | 11.0 | 0.00 | 0.00 | 0.00 | 86 | 1015.2 |
| 20260905195752 | 78 | 122 | 4.0 | 14.0 | 0.00 | 0.00 | 0.00 | 86 | 1015.1 |
| 20260905195253 | 78 | 18 | 6.0 | 14.0 | 0.00 | 0.00 | 0.00 | 86 | 1015.2 |
| 20260905194753 | 78 | 37 | 4.0 | 14.0 | 0.00 | 0.00 | 0.00 | 86 | 1015.1 |
| 20260905194251 | 78 | 25 | 4.0 | 9.0 | 0.00 | 0.00 | 0.00 | 86 | 1015.0 |
| 20260905193253 | 79 | 87 | 3.0 | 8.0 | 0.00 | 0.00 | 0.00 | 85 | 1015.1 |
| 20260905192753 | 80 | 27 | 3.0 | 8.0 | 0.00 | 0.00 | 0.00 | 85 | 1015.1 |
| 20260905192250 | 80 | 60 | 4.0 | 12.0 | 0.00 | 0.00 | 0.00 | 84 | 1015.0 |
| 20260905191747 | 80 | 90 | 5.0 | 16.0 | 0.00 | 0.00 | 0.00 | 83 | 1015.0 |
| 20260905191247 | 81 | 340 | 4.0 | 16.0 | 0.00 | 0.00 | 0.00 | 83 | 1015.0 |
| 20260905190747 | 81 | 34 | 3.0 | 12.0 | 0.00 | 0.00 | 0.00 | 82 | 1014.9 |
| 20260905190247 | 81 | 63 | 4.0 | 12.0 | 0.00 | 0.00 | 0.00 | 82 | 1015.0 |
| 20260905185747 | 81 | 30 | 4.0 | 11.0 | 0.00 | 0.00 | 0.00 | 82 | 1015.1 |
| 20260905185249 | 81 | 13 | 4.0 | 12.0 | 0.00 | 0.00 | 0.00 | 82 | 1015.1 |
| 20260905184748 | 81 | 32 | 5.0 | 13.0 | 0.00 | 0.00 | 0.00 | 83 | 1015.1 |
| 20260905184246 | 81 | 58 | 7.0 | 15.0 | 0.00 | 0.00 | 0.00 | 82 | 1015.1 |
| 20260905183744 | 81 | 25 | 7.0 | 15.0 | 0.00 | 0.00 | 0.00 | 82 | 1015.2 |
| 20260905182739 | 81 | 172 | 4.0 | 11.0 | 0.00 | 0.00 | 0.00 | 84 | 1015.2 |
| 20260905182240 | 81 | 40 | 4.0 | 14.0 | 0.00 | 0.00 | 0.00 | 84 | 1015.2 |
| 20260905181739 | 81 | 161 | 5.0 | 14.0 | 0.00 | 0.00 | 0.00 | 83 | 1015.4 |
| 20260905181239 | 81 | 146 | 6.0 | 16.0 | 0.00 | 0.00 | 0.00 | 84 | 1015.2 |
| 20260905180739 | 80 | 37 | 6.0 | 16.0 | 0.00 | 0.00 | 0.00 | 85 | 1015.2 |
| 20260905180239 | 80 | 46 | 6.0 | 15.0 | 0.00 | 0.00 | 0.00 | 85 | 1015.2 |
| 20260905175740 | 80 | 47 | 6.0 | 15.0 | 0.00 | 0.00 | 0.00 | 85 | 1015.1 |
| 20260905175239 | 80 | 20 | 4.0 | 13.0 | 0.00 | 0.00 | 0.00 | 85 | 1015.1 |
| 20260905174740 | 80 | 42 | 3.0 | 15.0 | 0.00 | 0.00 | 0.00 | 85 | 1015.1 |
| 20260905174234 | 81 | 27 | 4.0 | 15.0 | 0.00 | 0.00 | 0.00 | 85 | 1015.2 |
| 20260905173234 | 81 | 82 | 3.0 | 11.0 | 0.00 | 0.00 | 0.00 | 84 | 1015.1 |
| 20260905171234 | 80 | 33 | 6.0 | 13.0 | 0.00 | 0.00 | 0.00 | 87 | 1015.4 |
| 20260905170734 | 80 | 46 | 5.0 | 11.0 | 0.00 | 0.00 | 0.00 | 88 | 1015.4 |
| 20260905170232 | 80 | 25 | 4.0 | 11.0 | 0.00 | 0.00 | 0.00 | 88 | 1015.2 |
| 20260905165729 | 80 | 53 | 3.0 | 11.0 | 0.00 | 0.00 | 0.00 | 89 | 1015.2 |
| 20260905165230 | 79 | 32 | 3.0 | 9.0 | 0.00 | 0.00 | 0.00 | 90 | 1015.2 |
| 20260905164723 | 79 | 42 | 3.0 | 9.0 | 0.00 | 0.00 | 0.00 | 90 | 1015.5 |
| 20260905164217 | 79 | 63 | 3.0 | 8.0 | 0.00 | 0.00 | 0.00 | 91 | 1015.5 |
| 20260905163711 | 78 | 1 | 5.0 | 10.0 | 0.00 | 0.00 | 0.00 | 91 | 1015.4 |
| 20260905162153 | 77 | 30 | 3.0 | 8.0 | 0.00 | 0.00 | 0.00 | 92 | 1015.4 |
| 20260905161648 | 77 | 331 | 4.0 | 11.0 | 0.00 | 0.00 | 0.00 | 93 | 1015.5 |
| 20260905161141 | 77 | 16 | 4.0 | 11.0 | 0.00 | 0.00 | 0.00 | 94 | 1015.5 |
| 20260905160636 | 77 | 63 | 2.0 | 8.0 | 0.00 | 0.00 | 0.00 | 94 | 1015.4 |
| 20260905160129 | 76 | 25 | 3.0 | 9.0 | 0.00 | 0.00 | 0.00 | 94 | 1015.4 |
| 20260905155623 | 76 | 63 | 5.0 | 9.0 | 0.00 | 0.00 | 0.00 | 94 | 1015.4 |
| 20260905155117 | 76 | 340 | 3.0 | 9.0 | 0.00 | 0.00 | 0.00 | 95 | 1015.5 |
| 20260905154611 | 76 | 13 | 2.0 | 6.0 | 0.00 | 0.00 | 0.00 | 95 | 1015.4 |
| 20260905154105 | 76 | 75 | 3.0 | 8.0 | 0.00 | 0.00 | 0.00 | 95 | 1015.4 |
| 20260905153559 | 76 | 21 | 2.0 | 8.0 | 0.00 | 0.00 | 0.00 | 96 | 1015.4 |
| 20260905153053 | 75 | 44 | 2.0 | 7.0 | 0.00 | 0.00 | 0.00 | 96 | 1015.2 |
| 20260905152548 | 75 | 161 | 3.0 | 8.0 | 0.00 | 0.00 | 0.00 | 96 | 1015.0 |
| 20260905152041 | 75 | 32 | 4.0 | 9.0 | 0.00 | 0.00 | 0.00 | 96 | 1015.2 |
| 20260905151535 | 75 | 30 | 3.0 | 9.0 | 0.00 | 0.00 | 0.00 | 97 | 1015.0 |
| 20260905150523 | 74 | 18 | 2.0 | 9.0 | 0.00 | 0.00 | 0.00 | 97 | 1014.9 |
| 20260905150018 | 74 | 54 | 2.0 | 7.0 | 0.00 | 0.00 | 0.00 | 97 | 1014.7 |
| 20260905145512 | 74 | 82 | 3.0 | 7.0 | 0.00 | 0.00 | 0.00 | 97 | 1014.8 |
| 20260905143954 | 74 | 20 | 3.0 | 10.0 | 0.00 | 0.00 | 0.00 | 97 | 1014.5 |
| 20260905141929 | 74 | 37 | 4.0 | 9.0 | 0.00 | 0.00 | 0.00 | 97 | 1014.7 |
| 20260905141424 | 74 | 37 | 3.0 | 9.0 | 0.00 | 0.00 | 0.00 | 97 | 1014.6 |
| 20260905140917 | 74 | 25 | 3.0 | 12.0 | 0.00 | 0.00 | 0.00 | 96 | 1014.7 |
| 20260905140412 | 74 | 23 | 4.0 | 12.0 | 0.00 | 0.00 | 0.00 | 96 | 1014.7 |
| 20260905135905 | 74 | 37 | 3.0 | 11.0 | 0.00 | 0.00 | 0.00 | 96 | 1014.6 |
| 20260905135400 | 75 | 23 | 3.0 | 11.0 | 0.00 | 0.00 | 0.00 | 96 | 1014.7 |
| 20260905134854 | 75 | 42 | 4.0 | 11.0 | 0.00 | 0.00 | 0.00 | 95 | 1014.6 |
| 20260905134348 | 75 | 68 | 5.0 | 13.0 | 0.00 | 0.00 | 0.00 | 96 | 1014.5 |
| 20260905133842 | 75 | 28 | 5.0 | 13.0 | 0.00 | 0.00 | 0.00 | 96 | 1014.5 |
| 20260905133335 | 75 | 39 | 4.0 | 10.0 | 0.00 | 0.00 | 0.00 | 96 | 1014.4 |
| 20260905132830 | 75 | 46 | 3.0 | 9.0 | 0.00 | 0.00 | 0.00 | 96 | 1014.5 |
| 20260905132324 | 75 | 27 | 2.0 | 8.0 | 0.00 | 0.00 | 0.00 | 97 | 1014.5 |
| 20260905131817 | 75 | 46 | 2.0 | 6.0 | 0.00 | 0.00 | 0.00 | 97 | 1014.4 |
| 20260905131315 | 75 | 148 | 2.0 | 7.0 | 0.00 | 0.00 | 0.00 | 97 | 1014.3 |
| 20260905130802 | 75 | 27 | 3.0 | 9.0 | 0.00 | 0.00 | 0.00 | 98 | 1014.6 |
| 20260905130256 | 74 | 27 | 3.0 | 10.0 | 0.00 | 0.00 | 0.00 | 98 | 1014.6 |
| 20260905125749 | 74 | 72 | 3.0 | 10.0 | 0.00 | 0.00 | 0.00 | 98 | 1014.5 |
| 20260905125243 | 74 | 46 | 2.0 | 7.0 | 0.00 | 0.00 | 0.00 | 98 | 1014.4 |